StationID,Date,MaxTemp,MinTemp,Precipitation,Snowfall,SnowDepth
"CA001065945","1977-06-18",,,0.00,0.00,
"CA001065945","1977-06-19",66.02,53.06,5.00,0.00,
"CA001065945","1977-06-20",62.06,48.92,104.00,0.00,
"CA001065945","1977-06-21",59.00,48.92,124.00,0.00,
"CA001065945","1977-06-22",59.00,48.02,15.00,0.00,
"CA001065945","1977-06-23",60.08,46.04,38.00,0.00,
"CA001065945","1977-06-24",57.02,46.94,64.00,0.00,
"CA001065945","1977-06-25",64.94,48.02,0.00,0.00,
"CA001065945","1977-06-26",64.04,48.02,13.00,0.00,
"CA001065945","1977-06-27",62.96,48.92,33.00,0.00,
"CA001065945","1977-06-28",57.92,48.92,13.00,0.00,
"CA001065945","1977-06-29",62.96,50.00,76.00,0.00,
"CA001065945","1977-06-30",66.92,48.92,8.00,0.00,
"CA001065945","1977-07-01",64.04,46.94,5.00,0.00,
"CA001065945","1977-07-02",62.96,51.08,8.00,0.00,
"CA001065945","1977-07-03",69.08,46.94,0.00,0.00,
"CA001065945","1977-07-04",66.02,53.06,0.00,0.00,
"CA001065945","1977-07-05",60.98,51.98,0.00,0.00,
"CA001065945","1977-07-06",69.08,51.08,0.00,0.00,
"CA001065945","1977-07-07",77.00,39.92,46.00,0.00,
"CA001065945","1977-07-08",64.04,55.04,102.00,0.00,
"CA001065945","1977-07-09",64.04,53.96,0.00,0.00,
"CA001065945","1977-07-10",62.96,53.96,48.00,0.00,
"CA001065945","1977-07-11",66.02,53.06,23.00,0.00,
"CA001065945","1977-07-12",75.92,53.06,0.00,0.00,
"CA001065945","1977-07-13",71.06,60.08,0.00,0.00,
"CA001065945","1977-07-14",60.98,55.94,58.00,0.00,
"CA001065945","1977-07-15",66.92,53.06,94.00,0.00,
"CA001065945","1977-07-16",64.04,51.08,46.00,0.00,
"CA001065945","1977-07-17",62.06,46.04,10.00,0.00,
"CA001065945","1977-07-18",62.06,48.92,0.00,0.00,
"CA001065945","1977-07-19",66.92,51.98,0.00,0.00,
"CA001065945","1977-07-20",75.92,44.96,0.00,0.00,
"CA001065945","1977-07-21",64.94,53.96,3.00,0.00,
"CA001065945","1977-07-22",69.08,42.98,0.00,0.00,
"CA001065945","1977-07-23",69.98,39.92,0.00,0.00,
"CA001065945","1977-07-24",82.04,42.98,0.00,0.00,
"CA001065945","1977-07-25",84.92,50.00,0.00,0.00,
"CA001065945","1977-07-26",86.00,48.92,0.00,0.00,
"CA001065945","1977-07-27",89.06,48.02,3.00,0.00,
"CA001065945","1977-07-28",73.94,57.92,15.00,0.00,
"CA001065945","1977-07-29",64.94,55.94,8.00,0.00,
"CA001065945","1977-07-30",71.06,55.04,20.00,0.00,
"CA001065945","1977-07-31",69.08,53.06,0.00,0.00,
"CA001065945","1977-08-01",69.98,48.92,0.00,0.00,
"CA001065945","1977-08-02",80.96,59.00,0.00,0.00,
"CA001065945","1977-08-03",87.08,46.94,0.00,0.00,
"CA001065945","1977-08-04",89.96,48.92,0.00,0.00,
"CA001065945","1977-08-05",93.02,53.06,0.00,0.00,
"CA001065945","1977-08-06",89.96,51.08,0.00,0.00,
"CA001065945","1977-08-07",80.96,57.02,0.00,0.00,
"CA001065945","1977-08-08",78.98,64.94,0.00,0.00,
"CA001065945","1977-08-09",82.04,53.96,0.00,0.00,
"CA001065945","1977-08-10",89.06,48.92,0.00,0.00,
"CA001065945","1977-08-11",87.98,50.00,0.00,0.00,
"CA001065945","1977-08-12",89.06,53.96,0.00,0.00,
"CA001065945","1977-08-13",91.94,53.06,0.00,0.00,
"CA001065945","1977-08-14",87.08,60.08,0.00,0.00,
"CA001065945","1977-08-15",89.96,48.02,0.00,0.00,
"CA001065945","1977-08-16",91.04,50.00,0.00,0.00,
"CA001065945","1977-08-17",91.04,51.08,0.00,0.00,
"CA001065945","1977-08-18",91.94,50.00,0.00,0.00,
"CA001065945","1977-08-19",91.94,50.00,0.00,0.00,
"CA001065945","1977-08-20",95.00,51.98,0.00,0.00,
"CA001065945","1977-08-21",86.00,57.92,175.00,0.00,
"CA001065945","1977-08-22",69.08,42.08,58.00,0.00,
"CA001065945","1977-08-23",69.08,55.04,0.00,0.00,
"CA001065945","1977-08-24",71.06,42.98,0.00,0.00,
"CA001065945","1977-08-25",60.08,46.04,10.00,0.00,
"CA001065945","1977-08-26",64.04,48.92,15.00,0.00,
"CA001065945","1977-08-27",60.98,51.08,124.00,0.00,
"CA001065945","1977-08-28",55.94,51.08,74.00,0.00,
"CA001065945","1977-08-29",64.04,51.08,8.00,0.00,
"CA001065945","1977-08-30",64.94,48.92,33.00,0.00,
"CA001065945","1977-08-31",66.92,48.92,0.00,0.00,
"CA001065945","1977-09-01",68.00,39.02,0.00,0.00,
"CA001065945","1977-09-02",62.06,44.96,10.00,0.00,
"CA001065945","1977-09-03",57.92,48.92,152.00,0.00,
"CA001065945","1977-09-04",57.02,51.08,23.00,0.00,
"CA001065945","1977-09-05",62.06,48.92,5.00,0.00,
"CA001065945","1977-09-06",64.94,44.96,0.00,0.00,
"CA001065945","1977-09-07",66.92,39.02,10.00,0.00,
"CA001065945","1977-09-08",57.92,48.92,25.00,0.00,
"CA001065945","1977-09-09",60.98,44.06,0.00,0.00,
"CA001065945","1977-09-10",64.94,42.08,0.00,0.00,
"CA001065945","1977-09-11",64.94,42.08,0.00,0.00,
"CA001065945","1977-09-12",68.00,51.98,0.00,0.00,
"CA001065945","1977-09-13",69.98,44.96,0.00,0.00,
"CA001065945","1977-09-14",62.96,35.96,0.00,0.00,
"CA001065945","1977-09-15",66.92,41.00,0.00,0.00,
"CA001065945","1977-09-16",60.08,35.96,0.00,0.00,
"CA001065945","1977-09-17",66.92,37.04,0.00,0.00,
"CA001065945","1977-09-18",57.92,35.96,41.00,0.00,
"CA001065945","1977-09-19",55.94,48.92,53.00,0.00,
"CA001065945","1977-09-20",55.04,48.92,8.00,0.00,
"CA001065945","1977-09-21",62.06,48.92,61.00,0.00,
"CA001065945","1977-09-22",55.04,46.94,23.00,0.00,
"CA001065945","1977-09-23",57.02,41.00,5.00,0.00,
"CA001065945","1977-09-24",53.06,35.06,5.00,0.00,
"CA001065945","1977-09-25",55.94,44.06,0.00,0.00,
"CA001065945","1977-09-26",60.98,46.94,0.00,0.00,
"CA001065945","1977-09-27",64.04,42.08,0.00,0.00,
"CA001065945","1977-09-28",53.06,37.04,0.00,0.00,
"CA001065945","1977-09-29",57.02,35.96,18.00,0.00,
"CA001065945","1977-09-30",57.92,46.04,117.00,0.00,
"CA001065945","1977-10-01",48.02,42.08,10.00,0.00,
"CA001065945","1977-10-02",48.02,39.92,0.00,0.00,
"CA001065945","1977-10-03",46.04,37.04,0.00,0.00,
"CA001065945","1977-10-04",44.06,37.04,41.00,0.00,
"CA001065945","1977-10-05",53.96,41.00,0.00,0.00,
"CA001065945","1977-10-06",51.08,35.96,0.00,0.00,
"CA001065945","1977-10-07",44.96,39.92,127.00,0.00,
"CA001065945","1977-10-08",48.02,39.92,36.00,0.00,
"CA001065945","1977-10-09",51.98,35.96,5.00,0.00,
"CA001065945","1977-10-10",42.98,35.96,206.00,0.00,
"CA001065945","1977-10-11",53.06,37.94,406.00,0.00,
"CA001065945","1977-10-12",51.08,44.06,180.00,0.00,
"CA001065945","1977-10-13",48.92,42.98,13.00,0.00,
"CA001065945","1977-10-14",50.00,39.92,46.00,0.00,
"CA001065945","1977-10-15",51.98,35.96,89.00,0.00,
"CA001065945","1977-10-16",50.00,42.98,127.00,0.00,
"CA001065945","1977-10-17",51.98,42.08,160.00,0.00,
"CA001065945","1977-10-18",44.96,42.98,104.00,0.00,
"CA001065945","1977-10-19",48.02,37.04,0.00,0.00,
"CA001065945","1977-10-20",39.02,28.94,0.00,0.00,
"CA001065945","1977-10-21",42.08,30.02,373.00,0.00,
"CA001065945","1977-10-22",46.04,37.04,312.00,0.00,
"CA001065945","1977-10-23",50.00,41.00,20.00,0.00,
"CA001065945","1977-10-24",44.06,37.04,99.00,0.00,
"CA001065945","1977-10-25",42.98,37.04,36.00,0.00,
"CA001065945","1977-10-26",44.96,39.02,0.00,0.00,
"CA001065945","1977-10-27",44.96,37.04,25.00,0.00,
"CA001065945","1977-10-28",46.04,39.02,23.00,0.00,
"CA001065945","1977-10-29",44.06,39.02,13.00,0.00,
"CA001065945","1977-10-30",44.06,39.02,89.00,0.00,
"CA001065945","1977-10-31",42.08,37.04,53.00,0.00,
"CA001065945","1977-11-01",37.04,33.08,160.00,3.00,
"CA001065945","1977-11-02",41.00,33.98,145.00,0.00,
"CA001065945","1977-11-03",39.02,33.08,0.00,0.00,
"CA001065945","1977-11-04",35.96,30.92,20.00,20.00,
"CA001065945","1977-11-05",37.94,30.92,35.00,30.00,
"CA001065945","1977-11-06",39.02,32.00,219.00,8.00,
"CA001065945","1977-11-07",37.94,32.00,97.00,41.00,
"CA001065945","1977-11-08",33.98,33.08,122.00,122.00,
"CA001065945","1977-11-09",33.08,30.92,89.00,89.00,
"CA001065945","1977-11-10",33.98,30.92,135.00,33.00,
"CA001065945","1977-11-11",39.92,32.00,124.00,0.00,
"CA001065945","1977-11-12",39.02,33.98,76.00,0.00,
"CA001065945","1977-11-13",37.94,33.98,107.00,0.00,
"CA001065945","1977-11-14",39.02,33.08,150.00,0.00,
"CA001065945","1977-11-15",37.94,33.08,53.00,0.00,
"CA001065945","1977-11-16",35.06,30.02,28.00,28.00,
"CA001065945","1977-11-17",28.94,26.06,8.00,8.00,
"CA001065945","1977-11-18",24.98,17.06,0.00,0.00,
"CA001065945","1977-11-19",23.00,15.08,0.00,0.00,
"CA001065945","1977-11-20",15.98,6.08,0.00,0.00,
"CA001065945","1977-11-21",15.98,3.02,0.00,0.00,
"CA001065945","1977-11-22",17.96,5.00,0.00,0.00,
"CA001065945","1977-11-23",15.98,3.02,10.00,10.00,
"CA001065945","1977-11-24",15.08,10.04,160.00,160.00,
"CA001065945","1977-11-25",21.02,12.92,28.00,28.00,
"CA001065945","1977-11-26",23.00,15.08,117.00,117.00,
"CA001065945","1977-11-27",32.00,21.02,10.00,10.00,
"CA001065945","1977-11-28",39.02,26.06,394.00,51.00,
"CA001065945","1977-11-29",37.94,32.00,389.00,0.00,
"CA001065945","1977-11-30",35.96,33.08,134.00,81.00,
"CA001065945","1977-12-01",35.06,30.92,38.00,38.00,
"CA001065945","1977-12-02",33.08,30.92,10.00,10.00,
"CA001065945","1977-12-03",28.04,17.96,74.00,74.00,
"CA001065945","1977-12-04",10.04,3.92,18.00,18.00,
"CA001065945","1977-12-05",6.98,1.94,20.00,20.00,
"CA001065945","1977-12-06",10.04,5.00,28.00,28.00,
"CA001065945","1977-12-07",8.06,1.04,0.00,0.00,
"CA001065945","1977-12-08",-2.92,-9.04,0.00,0.00,
"CA001065945","1977-12-09",-2.92,-11.02,61.00,61.00,
"CA001065945","1977-12-10",5.00,-5.08,152.00,152.00,
"CA001065945","1977-12-11",12.92,1.04,97.00,97.00,
"CA001065945","1977-12-12",21.02,8.96,137.00,137.00,
"CA001065945","1977-12-13",30.02,17.06,45.00,30.00,
"CA001065945","1977-12-14",33.98,26.96,61.00,0.00,
"CA001065945","1977-12-15",33.08,30.92,48.00,48.00,
"CA001065945","1977-12-16",30.02,26.96,58.00,58.00,
"CA001065945","1977-12-17",24.98,19.04,0.00,0.00,
"CA001065945","1977-12-18",17.06,6.08,20.00,20.00,
"CA001065945","1977-12-19",19.94,15.08,69.00,69.00,
"CA001065945","1977-12-20",23.00,15.98,0.00,0.00,
"CA001065945","1977-12-21",15.98,5.00,0.00,0.00,
"CA001065945","1977-12-22",10.94,-0.04,0.00,0.00,
"CA001065945","1977-12-23",3.92,-5.98,0.00,0.00,
"CA001065945","1977-12-24",6.98,-11.92,0.00,0.00,
"CA001065945","1977-12-25",10.04,-0.94,0.00,0.00,
"CA001065945","1977-12-26",12.02,-2.02,0.00,0.00,
"CA001065945","1977-12-27",17.06,3.92,0.00,0.00,
"CA001065945","1977-12-28",12.02,-0.04,0.00,0.00,
"CA001065945","1977-12-29",10.94,-0.04,0.00,0.00,
"CA001065945","1977-12-30",6.08,-2.02,0.00,0.00,
"CA001065945","1977-12-31",1.94,-11.02,0.00,0.00,
"CA001065945","1978-01-01",1.04,-13.00,0.00,0.00,
"CA001065945","1978-01-02",1.04,-14.98,0.00,0.00,
"CA001065945","1978-01-03",1.04,-9.94,0.00,0.00,
"CA001065945","1978-01-04",10.94,-7.96,0.00,0.00,
"CA001065945","1978-01-05",10.04,6.08,0.00,0.00,
"CA001065945","1978-01-06",6.98,-9.94,0.00,0.00,
"CA001065945","1978-01-07",10.94,-9.04,152.00,152.00,
"CA001065945","1978-01-08",17.06,8.06,0.00,0.00,
"CA001065945","1978-01-09",21.92,8.96,5.00,5.00,
"CA001065945","1978-01-10",26.96,14.00,0.00,0.00,
"CA001065945","1978-01-11",28.04,15.98,0.00,0.00,
"CA001065945","1978-01-12",30.92,24.98,0.00,0.00,
"CA001065945","1978-01-13",30.92,26.96,0.00,0.00,
"CA001065945","1978-01-14",28.94,24.08,0.00,0.00,
"CA001065945","1978-01-15",26.06,17.06,0.00,0.00,
"CA001065945","1978-01-16",28.94,17.96,10.00,10.00,
"CA001065945","1978-01-17",32.00,24.98,0.00,0.00,
"CA001065945","1978-01-18",30.02,21.02,0.00,0.00,
"CA001065945","1978-01-19",26.96,15.98,36.00,36.00,
"CA001065945","1978-01-20",32.00,26.06,178.00,178.00,
"CA001065945","1978-01-21",35.06,28.04,109.00,61.00,
"CA001065945","1978-01-22",37.94,33.08,74.00,51.00,
"CA001065945","1978-01-23",37.94,28.94,71.00,25.00,
"CA001065945","1978-01-24",37.94,33.08,124.00,0.00,
"CA001065945","1978-01-25",39.92,32.00,8.00,0.00,
"CA001065945","1978-01-26",32.00,21.92,0.00,0.00,
"CA001065945","1978-01-27",24.98,15.98,0.00,0.00,
"CA001065945","1978-01-28",17.06,5.00,0.00,0.00,
"CA001065945","1978-01-29",21.92,3.92,0.00,0.00,
"CA001065945","1978-01-30",21.02,12.92,0.00,0.00,
"CA001065945","1978-01-31",17.06,6.98,0.00,0.00,
"CA001065945","1978-02-01",10.04,-5.98,0.00,0.00,
"CA001065945","1978-02-02",8.96,-14.98,0.00,0.00,
"CA001065945","1978-02-03",19.04,6.08,53.00,53.00,
"CA001065945","1978-02-04",21.92,15.08,107.00,107.00,
"CA001065945","1978-02-05",33.98,17.96,35.00,5.00,
"CA001065945","1978-02-06",35.96,28.94,5.00,0.00,
"CA001065945","1978-02-07",35.96,30.92,0.00,0.00,
"CA001065945","1978-02-08",39.92,30.02,0.00,0.00,
"CA001065945","1978-02-09",42.98,30.92,5.00,0.00,
"CA001065945","1978-02-10",37.04,21.02,0.00,0.00,
"CA001065945","1978-02-11",37.04,12.02,0.00,0.00,
"CA001065945","1978-02-12",35.06,12.92,0.00,0.00,
"CA001065945","1978-02-13",32.00,6.08,8.00,8.00,
"CA001065945","1978-02-14",30.92,19.04,20.00,20.00,
"CA001065945","1978-02-15",33.98,19.04,0.00,0.00,
"CA001065945","1978-02-16",30.92,10.94,36.00,36.00,
"CA001065945","1978-02-17",35.06,26.96,74.00,74.00,
"CA001065945","1978-02-18",35.06,30.92,82.00,18.00,
"CA001065945","1978-02-19",37.04,32.00,94.00,0.00,
"CA001065945","1978-02-20",35.96,33.08,132.00,0.00,
"CA001065945","1978-02-21",41.00,32.00,91.00,0.00,
"CA001065945","1978-02-22",42.08,33.08,71.00,0.00,
"CA001065945","1978-02-23",41.00,28.94,0.00,0.00,
"CA001065945","1978-02-24",39.02,17.06,0.00,0.00,
"CA001065945","1978-02-25",37.94,14.00,0.00,0.00,
"CA001065945","1978-02-26",37.94,10.94,0.00,0.00,
"CA001065945","1978-02-27",37.94,10.94,0.00,0.00,
"CA001065945","1978-02-28",42.98,24.08,0.00,0.00,
"CA001065945","1978-03-01",35.06,10.94,0.00,0.00,
"CA001065945","1978-03-02",21.92,15.08,0.00,0.00,
"CA001065945","1978-03-03",24.98,10.04,0.00,0.00,
"CA001065945","1978-03-04",26.06,1.94,13.00,13.00,
"CA001065945","1978-03-05",35.96,10.94,8.00,8.00,
"CA001065945","1978-03-06",33.98,26.06,105.00,64.00,
"CA001065945","1978-03-07",37.04,30.92,46.00,0.00,
"CA001065945","1978-03-08",42.98,30.92,66.00,0.00,
"CA001065945","1978-03-09",44.96,33.08,18.00,0.00,
"CA001065945","1978-03-10",46.94,30.02,0.00,0.00,
"CA001065945","1978-03-11",44.96,23.00,0.00,0.00,
"CA001065945","1978-03-12",37.04,17.96,79.00,79.00,
"CA001065945","1978-03-13",39.92,30.02,20.00,10.00,
"CA001065945","1978-03-14",42.98,28.04,0.00,0.00,
"CA001065945","1978-03-15",37.04,24.98,137.00,137.00,
"CA001065945","1978-03-16",39.92,30.92,8.00,8.00,
"CA001065945","1978-03-17",48.02,30.02,0.00,0.00,
"CA001065945","1978-03-18",48.02,24.98,15.00,0.00,
"CA001065945","1978-03-19",42.08,33.08,64.00,0.00,
"CA001065945","1978-03-20",48.02,33.98,10.00,0.00,
"CA001065945","1978-03-21",50.00,30.02,0.00,0.00,
"CA001065945","1978-03-22",48.92,23.00,0.00,0.00,
"CA001065945","1978-03-23",39.92,28.94,20.00,0.00,
"CA001065945","1978-03-24",44.96,33.08,66.00,0.00,
"CA001065945","1978-03-25",46.04,33.08,48.00,5.00,
"CA001065945","1978-03-26",42.98,30.02,86.00,5.00,
"CA001065945","1978-03-27",41.00,32.00,58.00,0.00,
"CA001065945","1978-03-28",48.92,33.08,10.00,0.00,
"CA001065945","1978-03-29",44.06,33.08,8.00,0.00,
"CA001065945","1978-03-30",50.00,30.92,0.00,0.00,
"CA001065945","1978-03-31",48.02,24.98,10.00,0.00,
"CA001065945","1978-04-01",46.04,33.08,0.00,0.00,
"CA001065945","1978-04-02",55.04,30.02,0.00,0.00,
"CA001065945","1978-04-03",55.94,26.96,0.00,0.00,
"CA001065945","1978-04-04",57.02,24.98,3.00,0.00,
"CA001065945","1978-04-05",51.08,35.06,0.00,0.00,
"CA001065945","1978-04-06",53.96,30.02,0.00,0.00,
"CA001065945","1978-04-07",48.02,33.98,74.00,0.00,
"CA001065945","1978-04-08",46.04,33.08,61.00,0.00,
"CA001065945","1978-04-09",42.98,33.08,145.00,0.00,
"CA001065945","1978-04-10",48.02,35.96,3.00,0.00,
"CA001065945","1978-04-11",46.04,32.00,43.00,0.00,
"CA001065945","1978-04-12",44.96,33.98,38.00,0.00,
"CA001065945","1978-04-13",53.96,33.98,0.00,0.00,
"CA001065945","1978-04-14",50.00,30.02,0.00,0.00,
"CA001065945","1978-04-15",51.98,28.04,5.00,0.00,
"CA001065945","1978-04-16",44.96,30.02,8.00,0.00,
"CA001065945","1978-04-17",53.96,33.98,0.00,0.00,
"CA001065945","1978-04-18",59.00,32.00,0.00,0.00,
"CA001065945","1978-04-19",62.96,37.04,0.00,0.00,
"CA001065945","1978-04-20",66.02,39.92,0.00,0.00,
"CA001065945","1978-04-21",59.00,35.96,0.00,0.00,
"CA001065945","1978-04-22",53.96,39.02,5.00,0.00,
"CA001065945","1978-04-23",55.04,39.92,0.00,0.00,
"CA001065945","1978-04-24",66.02,28.04,0.00,0.00,
"CA001065945","1978-04-25",59.00,39.02,13.00,0.00,
"CA001065945","1978-04-26",68.00,42.08,10.00,0.00,
"CA001065945","1978-04-27",59.00,44.96,0.00,0.00,
"CA001065945","1978-04-28",59.00,37.04,0.00,0.00,
"CA001065945","1978-04-29",59.00,28.94,0.00,0.00,
"CA001065945","1978-04-30",57.02,37.04,10.00,0.00,
"CA001065945","1978-05-01",48.02,41.00,64.00,0.00,
"CA001065945","1978-05-02",53.06,39.02,86.00,0.00,
"CA001065945","1978-05-03",48.92,37.04,5.00,0.00,
"CA001065945","1978-05-04",53.06,37.04,0.00,0.00,
"CA001065945","1978-05-05",62.06,28.94,0.00,0.00,
"CA001065945","1978-05-06",66.02,28.04,0.00,0.00,
"CA001065945","1978-05-07",60.08,39.02,0.00,0.00,
"CA001065945","1978-05-08",62.06,41.00,0.00,0.00,
"CA001065945","1978-05-09",62.96,30.92,0.00,0.00,
"CA001065945","1978-05-10",64.04,30.02,0.00,0.00,
"CA001065945","1978-05-11",64.94,46.04,0.00,0.00,
"CA001065945","1978-05-12",57.02,39.92,8.00,0.00,
"CA001065945","1978-05-13",62.06,33.08,0.00,0.00,
"CA001065945","1978-05-14",62.06,39.02,23.00,0.00,
"CA001065945","1978-05-15",62.06,44.06,25.00,0.00,
"CA001065945","1978-05-16",57.92,46.04,15.00,0.00,
"CA001065945","1978-05-17",59.00,42.08,0.00,0.00,
"CA001065945","1978-05-18",68.00,39.92,0.00,0.00,
"CA001065945","1978-05-19",59.00,44.06,0.00,0.00,
"CA001065945","1978-05-20",62.96,42.98,28.00,0.00,
"CA001065945","1978-05-21",57.02,39.02,23.00,0.00,
"CA001065945","1978-05-22",60.08,42.98,81.00,0.00,
"CA001065945","1978-05-23",62.06,44.06,0.00,0.00,
"CA001065945","1978-05-24",68.00,37.94,0.00,0.00,
"CA001065945","1978-05-25",60.08,48.02,18.00,0.00,
"CA001065945","1978-05-26",59.00,44.06,23.00,0.00,
"CA001065945","1978-05-27",55.04,44.96,10.00,0.00,
"CA001065945","1978-05-28",59.00,44.96,33.00,0.00,
"CA001065945","1978-05-29",55.94,41.00,5.00,0.00,
"CA001065945","1978-05-30",62.06,44.06,0.00,0.00,
"CA001065945","1978-05-31",73.94,33.08,0.00,0.00,
"CA001065945","1978-06-01",80.96,37.04,0.00,0.00,
"CA001065945","1978-06-02",82.04,39.02,0.00,0.00,
"CA001065945","1978-06-03",86.00,39.92,0.00,0.00,
"CA001065945","1978-06-04",82.94,42.98,0.00,0.00,
"CA001065945","1978-06-05",75.92,48.92,0.00,0.00,
"CA001065945","1978-06-06",84.02,42.08,0.00,0.00,
"CA001065945","1978-06-07",69.08,42.08,0.00,0.00,
"CA001065945","1978-06-08",64.04,48.92,0.00,0.00,
"CA001065945","1978-06-09",71.06,44.96,0.00,0.00,
"CA001065945","1978-06-10",64.94,51.98,79.00,0.00,
"CA001065945","1978-06-11",66.02,48.02,25.00,0.00,
"CA001065945","1978-06-12",62.96,48.02,43.00,0.00,
"CA001065945","1978-06-13",62.06,48.02,0.00,0.00,
"CA001065945","1978-06-14",69.98,53.06,0.00,0.00,
"CA001065945","1978-06-15",68.00,51.98,0.00,0.00,
"CA001065945","1978-06-16",75.02,46.94,25.00,0.00,
"CA001065945","1978-06-17",62.96,48.02,15.00,0.00,
"CA001065945","1978-06-18",71.06,37.04,0.00,0.00,
"CA001065945","1978-06-19",69.98,39.92,0.00,0.00,
"CA001065945","1978-06-20",71.06,48.92,66.00,0.00,
"CA001065945","1978-06-21",60.98,53.06,74.00,0.00,
"CA001065945","1978-06-22",80.06,50.00,0.00,0.00,
"CA001065945","1978-06-23",78.08,46.94,0.00,0.00,
"CA001065945","1978-06-24",69.08,57.02,0.00,0.00,
"CA001065945","1978-06-25",64.94,55.04,0.00,0.00,
"CA001065945","1978-06-26",69.98,55.04,0.00,0.00,
"CA001065945","1978-06-27",73.94,60.08,0.00,0.00,
"CA001065945","1978-06-28",78.08,48.92,0.00,0.00,
"CA001065945","1978-06-29",78.08,42.98,0.00,0.00,
"CA001065945","1978-06-30",66.92,53.06,0.00,0.00,
"CA001065945","1978-07-01",69.98,41.00,0.00,0.00,
"CA001065945","1978-07-02",77.00,39.02,0.00,0.00,
"CA001065945","1978-07-03",80.96,48.02,0.00,0.00,
"CA001065945","1978-07-04",80.96,48.92,0.00,0.00,
"CA001065945","1978-07-05",75.92,53.06,0.00,0.00,
"CA001065945","1978-07-06",82.04,48.92,0.00,0.00,
"CA001065945","1978-07-07",80.96,51.98,0.00,0.00,
"CA001065945","1978-07-08",66.92,55.94,104.00,0.00,
"CA001065945","1978-07-09",66.02,51.98,0.00,0.00,
"CA001065945","1978-07-10",78.98,48.92,43.00,0.00,
"CA001065945","1978-07-11",73.94,53.96,5.00,0.00,
"CA001065945","1978-07-12",62.96,53.06,8.00,0.00,
"CA001065945","1978-07-13",71.96,55.94,0.00,0.00,
"CA001065945","1978-07-14",71.06,51.08,0.00,0.00,
"CA001065945","1978-07-15",64.94,55.94,0.00,0.00,
"CA001065945","1978-07-16",64.04,55.04,0.00,0.00,
"CA001065945","1978-07-17",71.06,53.06,0.00,0.00,
"CA001065945","1978-07-18",78.98,44.06,0.00,0.00,
"CA001065945","1978-07-19",84.02,46.04,0.00,0.00,
"CA001065945","1978-07-20",87.98,48.92,0.00,0.00,
"CA001065945","1978-07-21",87.98,50.00,0.00,0.00,
"CA001065945","1978-07-22",87.98,50.00,0.00,0.00,
"CA001065945","1978-07-23",66.92,64.94,0.00,0.00,
"CA001065945","1978-07-24",78.98,48.02,0.00,0.00,
"CA001065945","1978-07-25",84.02,48.92,0.00,0.00,
"CA001065945","1978-07-26",84.02,51.98,0.00,0.00,
"CA001065945","1978-07-27",71.96,60.98,5.00,0.00,
"CA001065945","1978-07-28",75.02,53.06,0.00,0.00,
"CA001065945","1978-07-29",82.94,46.04,0.00,0.00,
"CA001065945","1978-07-30",87.98,51.98,0.00,0.00,
"CA001065945","1978-07-31",87.98,51.08,0.00,0.00,
"CA001065945","1978-08-01",84.92,53.96,0.00,0.00,
"CA001065945","1978-08-02",93.02,51.98,0.00,0.00,
"CA001065945","1978-08-03",86.00,55.04,0.00,0.00,
"CA001065945","1978-08-04",71.06,57.02,46.00,0.00,
"CA001065945","1978-08-05",60.98,51.08,447.00,0.00,
"CA001065945","1978-08-06",60.98,53.06,386.00,0.00,
"CA001065945","1978-08-07",69.98,55.94,28.00,0.00,
"CA001065945","1978-08-08",80.96,53.96,0.00,0.00,
"CA001065945","1978-08-09",69.98,53.96,66.00,0.00,
"CA001065945","1978-08-10",64.04,55.04,5.00,0.00,
"CA001065945","1978-08-11",69.98,48.92,0.00,0.00,
"CA001065945","1978-08-12",69.98,55.04,99.00,0.00,
"CA001065945","1978-08-13",62.06,53.96,61.00,0.00,
"CA001065945","1978-08-14",68.00,55.04,3.00,0.00,
"CA001065945","1978-08-15",64.94,51.08,0.00,0.00,
"CA001065945","1978-08-16",78.08,51.08,0.00,0.00,
"CA001065945","1978-08-17",62.96,48.92,89.00,0.00,
"CA001065945","1978-08-18",62.06,51.08,56.00,0.00,
"CA001065945","1978-08-19",57.02,51.08,58.00,0.00,
"CA001065945","1978-08-20",69.08,48.02,3.00,0.00,
"CA001065945","1978-08-21",59.00,48.02,18.00,0.00,
"CA001065945","1978-08-22",64.04,51.08,43.00,0.00,
"CA001065945","1978-08-23",66.02,48.92,3.00,0.00,
"CA001065945","1978-08-24",69.08,48.02,38.00,0.00,
"CA001065945","1978-08-25",69.08,51.08,3.00,0.00,
"CA001065945","1978-08-26",69.08,48.92,10.00,0.00,
"CA001065945","1978-08-27",73.94,51.98,0.00,0.00,
"CA001065945","1978-08-28",71.96,44.96,0.00,0.00,
"CA001065945","1978-08-29",75.02,50.00,28.00,0.00,
"CA001065945","1978-08-30",73.04,55.04,61.00,0.00,
"CA001065945","1978-08-31",66.02,55.04,28.00,0.00,
"CA001065945","1978-09-01",68.00,46.94,91.00,0.00,
"CA001065945","1978-09-02",60.98,42.98,23.00,0.00,
"CA001065945","1978-09-03",64.04,44.96,3.00,0.00,
"CA001065945","1978-09-04",69.08,42.98,0.00,0.00,
"CA001065945","1978-09-05",66.02,42.98,0.00,0.00,
"CA001065945","1978-09-06",71.06,39.92,0.00,0.00,
"CA001065945","1978-09-07",57.02,44.96,3.00,0.00,
"CA001065945","1978-09-08",68.00,44.06,0.00,0.00,
"CA001065945","1978-09-09",64.04,42.08,112.00,0.00,
"CA001065945","1978-09-10",64.04,53.06,28.00,0.00,
"CA001065945","1978-09-11",66.92,48.92,0.00,0.00,
"CA001065945","1978-09-12",60.98,46.04,30.00,0.00,
"CA001065945","1978-09-13",64.94,51.98,48.00,0.00,
"CA001065945","1978-09-14",59.00,48.92,79.00,0.00,
"CA001065945","1978-09-15",55.94,46.94,28.00,0.00,
"CA001065945","1978-09-16",55.04,42.08,15.00,0.00,
"CA001065945","1978-09-17",62.06,42.98,0.00,0.00,
"CA001065945","1978-09-18",60.08,37.94,0.00,0.00,
"CA001065945","1978-09-19",53.96,44.06,165.00,0.00,
"CA001065945","1978-09-20",53.96,46.04,64.00,0.00,
"CA001065945","1978-09-21",53.06,42.98,18.00,0.00,
"CA001065945","1978-09-22",51.08,35.96,13.00,0.00,
"CA001065945","1978-09-23",57.02,41.00,0.00,0.00,
"CA001065945","1978-09-24",59.00,37.04,0.00,0.00,